Terminal Aerodrome Forecast
Issued by NWS

Home | Current Version | Previous Version | Graphics & Text | Print | Product List | Glossary Off
Versions: 1 2 3 4 5 6 7 8 9 10 11 12 13 14 15 16 17 18 19 20 21 22 23 24 25 26 27 28 29 30 31 32 33 34 35 36 37 38 39 40 41 42 43 44 45 46 47 48 49

000
FTUS43 KDDC 220520
TAFHYS
TAF
KHYS 220520Z 2206/2306 VRB06KT 1/4SM FG OVC002
      TEMPO 2208/2212 1SM BR BKN007
     FM221200 19008KT 3SM BR SCT150
     FM221600 20012KT P6SM SCT250
     FM230300 18010KT 4SM BR SCT200=

USA.gov is the U.S. government's official web portal to all federal, state and local government web resources and services.